Regional Weather Roundup
Issued by NWS

Home | Current Version | Previous Version | Graphics & Text | Print | Product List | Glossary On
Versions: 1 2 3 4 5 6 7 8 9 10 11 12 13 14 15 16 17 18 19 20 21 22 23 24 25 26 27 28 29 30 31 32 33 34 35 36 37 38 39 40 41 42 43 44 45 46 47 48 49 50
000
ASUS43 KDTX 180010
RWRMI
MICHIGAN HOURLY REGIONAL WEATHER ROUNDUP
NATIONAL WEATHER SERVICE DETROIT/PONTIAC MI
700 PM EST SUN DEC 17 2017

NOTE: "FAIR" INDICATES FEW OR NO CLOUDS BELOW 12,000 FEET WITH NO
SIGNIFICANT WEATHER AND/OR OBSTRUCTION TO VISIBILITY.

MIZ047>049-052>055-059>063-066>070-074>076-081>083-180100-
SOUTHEAST LOWER MICHIGAN

CITY           SKY/WX    TMP DP  RH WIND       PRES   REMARKS
ADRIAN         CLOUDY    32  30  92 SE3       30.05F FOG
6HR MIN TEMP:  32; 6HR MAX TEMP:  34;

ALMA           CLOUDY    28  27  95 E8        30.02F FOG     WCI  20
6HR MIN TEMP:  27; 6HR MAX TEMP:  29;

ANN ARBOR      CLOUDY    32  30  92 E3        30.04F FOG
BAD AXE        CLOUDY    27  23  84 SE6       30.08F WCI  21
6HR MIN TEMP:  27; 6HR MAX TEMP:  28;

CARO           CLOUDY    27  24  89 E9        30.05F WCI  17
DETROIT CITY   CLOUDY    32  29  88 E5        30.07F WCI  27
6HR MIN TEMP:  31; 6HR MAX TEMP:  32;

DETROIT        CLOUDY    36  30  79 SE5       30.06F WCI  32
6HR MIN TEMP:  34; 6HR MAX TEMP:  37;

FLINT          CLOUDY    30  28  92 SE7       30.03F WCI  23
6HR MIN TEMP:  28; 6HR MAX TEMP:  30;

GROSSE ILE     CLOUDY    33  31  93 CALM      30.05F FOG
6HR MIN TEMP:  32; 6HR MAX TEMP:  34;

HILLSDALE      CLOUDY    32  30  93 S5        30.01S FOG     WCI  27
HOWELL         CLOUDY    32  31  96 SE8       30.02S FOG     WCI  25
6HR MIN TEMP:  30; 6HR MAX TEMP:  32;


CITY           SKY/WX    TMP DP  RH WIND       PRES   REMARKS
JACKSON        CLOUDY    33  29  85 SE6       30.02S FOG     WCI  28
6HR MIN TEMP:  32; 6HR MAX TEMP:  34;

LAMBERTVILLE   CLOUDY    32  29  90 CALM      30.05F FOG
6HR MIN TEMP:  32; 6HR MAX TEMP:  34;

LANSING        CLOUDY    32  30  92 SE6       30.02F FOG     WCI  26
6HR MIN TEMP:  29; 6HR MAX TEMP:  32;

LAPEER         CLOUDY    27  26  94 SE6       30.04F FOG     WCI  21
6HR MIN TEMP:  27; 6HR MAX TEMP:  28;

MASON          CLOUDY    32  28  85 S7        30.02R FOG     WCI  26
6HR MIN TEMP:  32; 6HR MAX TEMP:  34;

MONROE         CLOUDY    32  30  92 E3        30.05F FOG
6HR MIN TEMP:  31; 6HR MAX TEMP:  34;

MT. CLEMENS    CLOUDY    29  29  99 E7        30.05F WCI  22
6HR MIN TEMP:  29; 6HR MAX TEMP:  30;

PONTIAC        CLOUDY    30  29  96 E7        30.03F FOG     WCI  23
6HR MIN TEMP:  27; 6HR MAX TEMP:  30;

PORT HOPE        N/A     29  25  85 SE7       30.08F WCI  22
6HR MIN TEMP:  27; 6HR MAX TEMP:  29;

PORT HURON     CLOUDY    25  19  80 E8        30.09F WCI  16
TRI CITIES     CLOUDY    28  25  88 E7        30.05F WCI  21
6HR MIN TEMP:  27; 6HR MAX TEMP:  29;

MIDLAND        CLOUDY    28  24  82 E7        30.04F WCI  21
6HR MIN TEMP:  27; 6HR MAX TEMP:  29;

TROY           CLOUDY    31  29  91 E6        30.07F WCI  26
SAGINAW HB     CLOUDY    28  27  93 E6        30.04F WCI  22
$$
MIZ043>046-050>051-056>058-064>065-071>073-077>080-180100-
SOUTHWEST LOWER MICHIGAN

CITY           SKY/WX    TMP DP  RH WIND       PRES   REMARKS
BATTLE CREEK   CLOUDY    32  29  88 S8        30.00F FOG     WCI  25
6HR MIN TEMP:  32; 6HR MAX TEMP:  34;

BENTON HARBOR  CLOUDY    38  30  73 S6        30.00R WCI  33
6HR MIN TEMP:  34; 6HR MAX TEMP:  38;

BIG RAPIDS     CLOUDY    26  25  95 E5        30.00F FOG     WCI  21
6HR MIN TEMP:  25; 6HR MAX TEMP:  27;

COLDWATER      CLOUDY    32  32  99 SE7       30.01F FOG     WCI  26
6HR MIN TEMP:  31; 6HR MAX TEMP:  33;

HOLLAND        CLOUDY    31  27  85 E5        29.99F WCI  26
6HR MIN TEMP:  28; 6HR MAX TEMP:  33;

GRAND RAPIDS   CLOUDY    29  27  92 E8        29.99F FOG     WCI  21
6HR MIN TEMP:  27; 6HR MAX TEMP:  31;

IONIA          CLOUDY    30  28  93 E5        30.00F FOG     WCI  25
6HR MIN TEMP:  28; 6HR MAX TEMP:  32;

KALAMAZOO      MOCLDY    32  29  88 S3        30.00F FOG
6HR MIN TEMP:  31; 6HR MAX TEMP:  35;

LUDINGTON      CLOUDY    29  27  90 SE5       30.00F FOG     WCI  24
6HR MIN TEMP:  28; 6HR MAX TEMP:  29;

MARSHALL       CLOUDY    32  31  96 SE3       30.01F FOG
6HR MIN TEMP:  31; 6HR MAX TEMP:  33;

MOUNT PLEASANT CLOUDY    28  24  84 E8        30.02F WCI  20
6HR MIN TEMP:  28; 6HR MAX TEMP:  29;

MUSKEGON       CLOUDY    31  26  82 E6        30.00F HAZE    WCI  25
6HR MIN TEMP:  28; 6HR MAX TEMP:  31;

SOUTH HAVEN    CLOUDY    36  30  80 S5        29.99S WCI  32
$$
MIZ016>042-180100-
NORTHERN LOWER MICHIGAN

CITY           SKY/WX    TMP DP  RH WIND       PRES   REMARKS
ALPENA         CLOUDY    27  24  89 SE7       30.07F WCI  19
6HR MIN TEMP:  25; 6HR MAX TEMP:  27;

BEAVER ISLAND  CLOUDY    29  27  90 SE6       30.01F WCI  23
6HR MIN TEMP:  27; 6HR MAX TEMP:  29;

BELLAIRE       CLOUDY    28  26  95 SE6       30.03F WCI  21
6HR MIN TEMP:  26; 6HR MAX TEMP:  28;

CADILLAC       FOG       24  24  99 SE7       29.98S VSB 1   WCI  16
CHARLEVOIX     CLOUDY    28  24  87 SE8       30.05F WCI  20
6HR MIN TEMP:  26; 6HR MAX TEMP:  28;

FRANKFORT      CLOUDY    31  27  86 SE3       30.01F
GAYLORD        CLOUDY    23  21  92 SE9       30.00F FOG     WCI  13
6HR MIN TEMP:  22; 6HR MAX TEMP:  24;

GRAYLING       CLOUDY    24  22  91 E8        30.02F FOG     WCI  15
6HR MIN TEMP:  23; 6HR MAX TEMP:  25;

HARBOR SPRINGS CLOUDY    26  22  87 E8        30.03F WCI  17
HOUGHTON LAKE  CLOUDY    24  20  84 SE9       30.02F WCI  14
6HR MIN TEMP:  24; 6HR MAX TEMP:  25;

MANISTEE       CLOUDY    29  26  89 SE7       30.00F WCI  22
OSCODA         CLOUDY    29  22  75 SE3       30.07F
6HR MIN TEMP:  27; 6HR MAX TEMP:  29;

PELLSTON       CLOUDY    26  22  84 SE5       30.04F WCI  20
6HR MIN TEMP:  17; 6HR MAX TEMP:  26;

ROGERS CITY    CLOUDY    27  23  85 SE6       30.07F WCI  20
TRAVERSE CITY  CLOUDY    28  24  85 SE5       30.01F WCI  23
6HR MIN TEMP:  27; 6HR MAX TEMP:  29;

$$
MIZ007>008-015-180100-
EASTERN UPPER MICHIGAN

CITY           SKY/WX    TMP DP  RH WIND       PRES   REMARKS
MACKINAC ISLAN CLOUDY    27  21  77 SE8       30.04F WCI  19
6HR MIN TEMP:  23; 6HR MAX TEMP:  27;

NEWBERRY       FLURRIES  17  17  97 E5        30.01F WCI  10
6HR MIN TEMP:  17; 6HR MAX TEMP:  19;

S. S. MARIE    CLOUDY    16  11  80 E5        30.07F WCI   9
6HR MIN TEMP:   8; 6HR MAX TEMP:  16;

MUNISING         N/A     26  24  92 S7        29.99F WCI  18
6HR MIN TEMP:  24; 6HR MAX TEMP:  26;

$$
MIZ004>006-011>014-085-180100-
CENTRAL UPPER MICHIGAN

CITY           SKY/WX    TMP DP  RH WIND       PRES   REMARKS
MANISTIQUE     CLOUDY    29  25  82 SE7       29.99F WCI  22
6HR MIN TEMP:  26; 6HR MAX TEMP:  29;

ESCANABA       CLOUDY    30  27  88 NW3       30.00F
6HR MIN TEMP:  30; 6HR MAX TEMP:  31;

MENOMINEE      CLOUDY    31  27  85 S3        30.00S
6HR MIN TEMP:  31; 6HR MAX TEMP:  33;

SAWYER-GWINN   LGT SNOW  25  23  93 S8        29.96F WCI  16
$$
MIZ001>003-009>011-084-180100-
WESTERN UPPER MICHIGAN

CITY           SKY/WX    TMP DP  RH WIND       PRES   REMARKS
IRON MOUNTAIN  CLOUDY    26  23  88 CALM      29.95F
6HR MIN TEMP:  24; 6HR MAX TEMP:  27;

HOUGHTON       CLOUDY    25  20  81 SW5       29.93S WCI  19
6HR MIN TEMP:  24; 6HR MAX TEMP:  26;

COPPER HARBOR    N/A     26  21  81 CALM      29.96S
6HR MIN TEMP:  26; 6HR MAX TEMP:  28;

IRONWOOD       CLOUDY    24  22  91 CALM      29.93F
6HR MIN TEMP:  24; 6HR MAX TEMP:  27;

$$

ABBREVIATIONS USED IN REMARKS
   TC - TEMPERATURE IN CELSIUS
  WCI - WIND CHILL INDEX
   HX - HEAT INDEX
  VSB - VISIBILITY





USA.gov is the U.S. government's official web portal to all federal, state and local government web resources and services.